| time (UTC) | temp C | wind direction | speed KPH | gust KPH | rain 1hr cm | rain 24hr cm | rain mn cm | humidity % | barometer mb |
| 20260503050604 | 3 | 296 | 0.0 | 1.6 | 0.00 | 0.00 | 0.00 | 69 | 1016.3 |
| 20260503045604 | 3 | 296 | 0.0 | 3.2 | 0.00 | 0.00 | 0.00 | 69 | 1016.4 |
| 20260503045104 | 3 | 296 | 1.6 | 3.2 | 0.00 | 0.00 | 0.00 | 68 | 1016.4 |
| 20260503044604 | 3 | 296 | 1.6 | 3.2 | 0.00 | 0.00 | 0.00 | 68 | 1016.3 |
| 20260503044104 | 3 | 296 | 1.6 | 4.8 | 0.00 | 0.00 | 0.00 | 68 | 1016.4 |
| 20260503043604 | 3 | 296 | 1.6 | 3.2 | 0.00 | 0.00 | 0.00 | 68 | 1016.4 |
| 20260503043104 | 3 | 296 | 0.0 | 3.2 | 0.00 | 0.00 | 0.00 | 68 | 1016.3 |
| 20260503042605 | 3 | 296 | 0.0 | 3.2 | 0.00 | 0.00 | 0.00 | 68 | 1016.3 |
| 20260503042104 | 3 | 296 | 1.6 | 3.2 | 0.00 | 0.00 | 0.00 | 68 | 1016.4 |
| 20260503041604 | 3 | 296 | 0.0 | 1.6 | 0.00 | 0.00 | 0.00 | 68 | 1016.4 |
| 20260503041104 | 3 | 296 | 1.6 | 3.2 | 0.00 | 0.00 | 0.00 | 69 | 1016.5 |
| 20260503035104 | 4 | 296 | 0.0 | 1.6 | 0.00 | 0.00 | 0.00 | 68 | 1016.5 |
| 20260503034604 | 4 | 296 | 0.0 | 0.0 | 0.00 | 0.00 | 0.00 | 68 | 1016.6 |
| 20260503034103 | 4 | 296 | 0.0 | 1.6 | 0.00 | 0.00 | 0.00 | 68 | 1016.5 |
| 20260503033604 | 5 | 296 | 0.0 | 0.0 | 0.00 | 0.00 | 0.00 | 67 | 1016.5 |
| 20260503033104 | 5 | 296 | 0.0 | 1.6 | 0.00 | 0.00 | 0.00 | 67 | 1016.6 |
| 20260503032604 | 5 | 296 | 1.6 | 3.2 | 0.00 | 0.00 | 0.00 | 67 | 1016.6 |
| 20260503032104 | 5 | 296 | 0.0 | 3.2 | 0.00 | 0.00 | 0.00 | 67 | 1016.6 |
| 20260503030604 | 5 | 296 | 0.0 | 3.2 | 0.00 | 0.00 | 0.00 | 66 | 1016.6 |
| 20260503025603 | 5 | 296 | 0.0 | 1.6 | 0.00 | 0.00 | 0.00 | 66 | 1016.6 |
| 20260503025104 | 5 | 296 | 0.0 | 1.6 | 0.00 | 0.00 | 0.00 | 66 | 1016.7 |
| 20260503024104 | 5 | 296 | 0.0 | 1.6 | 0.00 | 0.00 | 0.00 | 64 | 1016.8 |
| 20260503023604 | 5 | 296 | 0.0 | 0.0 | 0.00 | 0.00 | 0.00 | 63 | 1016.7 |
| 20260503023105 | 5 | 296 | 0.0 | 1.6 | 0.00 | 0.00 | 0.00 | 63 | 1016.7 |
| 20260503022104 | 6 | 296 | 0.0 | 0.0 | 0.00 | 0.00 | 0.00 | 61 | 1016.7 |
| 20260503021604 | 6 | 296 | 0.0 | 0.0 | 0.00 | 0.00 | 0.00 | 60 | 1016.6 |
| 20260503021104 | 6 | 296 | 0.0 | 1.6 | 0.00 | 0.00 | 0.00 | 59 | 1016.5 |
| 20260503020604 | 6 | 296 | 0.0 | 0.0 | 0.00 | 0.00 | 0.00 | 58 | 1016.5 |
| 20260503020105 | 6 | 296 | 0.0 | 0.0 | 0.00 | 0.00 | 0.00 | 58 | 1016.4 |
| 20260503015604 | 6 | 296 | 0.0 | 1.6 | 0.00 | 0.00 | 0.00 | 57 | 1016.4 |
| 20260503015104 | 7 | 296 | 0.0 | 1.6 | 0.00 | 0.00 | 0.00 | 57 | 1016.4 |
| 20260503014604 | 7 | 296 | 0.0 | 3.2 | 0.00 | 0.00 | 0.00 | 56 | 1016.4 |
| 20260503014104 | 7 | 314 | 0.0 | 3.2 | 0.00 | 0.00 | 0.00 | 56 | 1016.3 |
| 20260503013604 | 7 | 314 | 0.0 | 3.2 | 0.00 | 0.00 | 0.00 | 55 | 1016.3 |
| 20260503012604 | 7 | 315 | 0.0 | 1.6 | 0.00 | 0.00 | 0.00 | 54 | 1016.2 |
| 20260503012104 | 7 | 315 | 0.0 | 1.6 | 0.00 | 0.00 | 0.00 | 55 | 1016.2 |
| 20260503011105 | 7 | 315 | 0.0 | 1.6 | 0.00 | 0.00 | 0.00 | 54 | 1016.2 |
| 20260503010604 | 7 | 315 | 0.0 | 1.6 | 0.00 | 0.00 | 0.00 | 53 | 1016.2 |
| 20260503010105 | 7 | 315 | 0.0 | 1.6 | 0.00 | 0.00 | 0.00 | 52 | 1016.2 |
| 20260503005604 | 7 | 315 | 0.0 | 1.6 | 0.00 | 0.00 | 0.00 | 52 | 1016.1 |
| 20260503005105 | 7 | 315 | 0.0 | 1.6 | 0.00 | 0.00 | 0.00 | 51 | 1016.1 |
| 20260503004604 | 8 | 315 | 0.0 | 1.6 | 0.00 | 0.00 | 0.00 | 50 | 1016.1 |
| 20260503004104 | 8 | 315 | 0.0 | 1.6 | 0.00 | 0.00 | 0.00 | 50 | 1016.0 |
| 20260503003104 | 8 | 315 | 0.0 | 3.2 | 0.00 | 0.00 | 0.00 | 50 | 1015.9 |
| 20260503002604 | 8 | 315 | 0.0 | 3.2 | 0.00 | 0.00 | 0.00 | 50 | 1015.9 |
| 20260503001604 | 8 | 315 | 1.6 | 4.8 | 0.00 | 0.00 | 0.00 | 49 | 1015.9 |
| 20260503001105 | 8 | 315 | 3.2 | 4.8 | 0.00 | 0.00 | 0.00 | 49 | 1015.9 |
| 20260503000604 | 8 | 294 | 4.8 | 8.0 | 0.00 | 0.00 | 0.00 | 49 | 1015.9 |
| 20260503000105 | 8 | 324 | 3.2 | 4.8 | 0.00 | 0.00 | 0.00 | 49 | 1015.9 |
| 20260502235604 | 8 | 306 | 3.2 | 4.8 | 0.00 | 0.00 | 0.00 | 49 | 1015.9 |
| 20260502234604 | 8 | 308 | 3.2 | 4.8 | 0.00 | 0.00 | 0.00 | 49 | 1016.0 |
| 20260502234104 | 8 | 288 | 4.8 | 12.9 | 0.00 | 0.00 | 0.00 | 48 | 1015.9 |
| 20260502233604 | 8 | 312 | 3.2 | 8.0 | 0.00 | 0.00 | 0.00 | 48 | 1015.9 |
| 20260502233104 | 8 | 257 | 3.2 | 9.7 | 0.00 | 0.00 | 0.00 | 48 | 1016.0 |
| 20260502231604 | 8 | 334 | 4.8 | 9.7 | 0.00 | 0.00 | 0.00 | 48 | 1016.1 |
| 20260502231104 | 8 | 288 | 3.2 | 11.3 | 0.00 | 0.00 | 0.00 | 47 | 1016.1 |
| 20260502230604 | 8 | 297 | 4.8 | 14.5 | 0.00 | 0.00 | 0.00 | 47 | 1016.1 |
| 20260502230105 | 8 | 311 | 4.8 | 11.3 | 0.00 | 0.00 | 0.00 | 46 | 1016.2 |
| 20260502225605 | 8 | 331 | 6.4 | 14.5 | 0.00 | 0.00 | 0.00 | 46 | 1016.2 |
| 20260502225104 | 8 | 312 | 6.4 | 14.5 | 0.00 | 0.00 | 0.00 | 47 | 1016.2 |
| 20260502224604 | 8 | 342 | 4.8 | 9.7 | 0.00 | 0.00 | 0.00 | 48 | 1016.2 |
| 20260502224104 | 8 | 264 | 8.0 | 14.5 | 0.00 | 0.00 | 0.00 | 48 | 1016.2 |
| 20260502223604 | 8 | 340 | 4.8 | 8.0 | 0.00 | 0.00 | 0.00 | 46 | 1016.3 |
| 20260502223104 | 8 | 325 | 4.8 | 9.7 | 0.00 | 0.00 | 0.00 | 46 | 1016.3 |
| 20260502222604 | 8 | 316 | 4.8 | 12.9 | 0.00 | 0.00 | 0.00 | 45 | 1016.2 |
| 20260502222104 | 8 | 330 | 4.8 | 14.5 | 0.00 | 0.00 | 0.00 | 45 | 1016.4 |
| 20260502221604 | 8 | 337 | 3.2 | 8.0 | 0.00 | 0.00 | 0.00 | 45 | 1016.4 |
| 20260502221105 | 8 | 343 | 4.8 | 12.9 | 0.00 | 0.00 | 0.00 | 45 | 1016.4 |
| 20260502220604 | 8 | 317 | 8.0 | 14.5 | 0.00 | 0.00 | 0.00 | 46 | 1016.4 |
| 20260502215604 | 8 | 325 | 6.4 | 14.5 | 0.00 | 0.00 | 0.00 | 46 | 1016.4 |
| 20260502215104 | 8 | 9 | 4.8 | 12.9 | 0.00 | 0.00 | 0.00 | 45 | 1016.4 |
| 20260502214604 | 8 | 341 | 9.7 | 19.3 | 0.00 | 0.00 | 0.00 | 44 | 1016.4 |
| 20260502214105 | 8 | 325 | 6.4 | 12.9 | 0.00 | 0.00 | 0.00 | 46 | 1016.4 |
| 20260502213605 | 8 | 316 | 6.4 | 11.3 | 0.00 | 0.00 | 0.00 | 45 | 1016.4 |
| 20260502213104 | 8 | 306 | 8.0 | 14.5 | 0.00 | 0.00 | 0.00 | 46 | 1016.4 |
| 20260502212104 | 8 | 333 | 6.4 | 16.1 | 0.00 | 0.00 | 0.00 | 46 | 1016.4 |
| 20260502211605 | 8 | 322 | 8.0 | 14.5 | 0.00 | 0.00 | 0.00 | 46 | 1016.5 |
| 20260502211104 | 8 | 287 | 4.8 | 16.1 | 0.00 | 0.00 | 0.00 | 46 | 1016.6 |
| 20260502210603 | 8 | 352 | 9.7 | 16.1 | 0.00 | 0.00 | 0.00 | 45 | 1016.5 |
| 20260502205104 | 8 | 330 | 4.8 | 14.5 | 0.00 | 0.00 | 0.00 | 46 | 1016.6 |
| 20260502204604 | 8 | 278 | 4.8 | 14.5 | 0.00 | 0.00 | 0.00 | 47 | 1016.6 |
| 20260502204104 | 8 | 315 | 8.0 | 19.3 | 0.00 | 0.00 | 0.00 | 45 | 1016.7 |
| 20260502203604 | 8 | 341 | 8.0 | 19.3 | 0.00 | 0.00 | 0.00 | 46 | 1016.7 |
| 20260502203104 | 8 | 326 | 11.3 | 22.5 | 0.00 | 0.00 | 0.00 | 46 | 1016.8 |
| 20260502202604 | 8 | 290 | 9.7 | 14.5 | 0.00 | 0.00 | 0.00 | 46 | 1016.7 |
| 20260502201604 | 8 | 339 | 8.0 | 19.3 | 0.00 | 0.00 | 0.00 | 45 | 1016.9 |
| 20260502201103 | 8 | 304 | 9.7 | 20.9 | 0.00 | 0.00 | 0.00 | 45 | 1017.0 |
| 20260502200604 | 8 | 315 | 14.5 | 19.3 | 0.00 | 0.00 | 0.00 | 46 | 1016.9 |
| 20260502200105 | 8 | 340 | 8.0 | 16.1 | 0.00 | 0.00 | 0.00 | 45 | 1017.0 |
| 20260502195604 | 8 | 275 | 4.8 | 12.9 | 0.00 | 0.00 | 0.00 | 49 | 1016.9 |
| 20260502194604 | 8 | 328 | 8.0 | 19.3 | 0.00 | 0.00 | 0.00 | 47 | 1017.1 |
| 20260502194105 | 7 | 302 | 9.7 | 19.3 | 0.00 | 0.00 | 0.00 | 46 | 1017.2 |
| 20260502193604 | 8 | 278 | 11.3 | 19.3 | 0.00 | 0.00 | 0.00 | 46 | 1017.2 |
| 20260502193104 | 8 | 315 | 8.0 | 19.3 | 0.00 | 0.00 | 0.00 | 45 | 1017.1 |
| 20260502192604 | 8 | 310 | 4.8 | 14.5 | 0.00 | 0.00 | 0.00 | 46 | 1017.2 |
| 20260502191604 | 8 | 313 | 4.8 | 19.3 | 0.00 | 0.00 | 0.00 | 45 | 1017.2 |
| 20260502190604 | 8 | 297 | 6.4 | 16.1 | 0.00 | 0.00 | 0.00 | 49 | 1017.4 |
| 20260502190105 | 7 | 329 | 6.4 | 14.5 | 0.00 | 0.00 | 0.00 | 48 | 1017.4 |
| 20260502185604 | 7 | 338 | 8.0 | 19.3 | 0.00 | 0.00 | 0.00 | 46 | 1017.5 |
| 20260502185104 | 7 | 319 | 8.0 | 16.1 | 0.00 | 0.00 | 0.00 | 49 | 1017.5 |
| 20260502184604 | 7 | 329 | 4.8 | 19.3 | 0.00 | 0.00 | 0.00 | 48 | 1017.5 |
| 20260502184104 | 7 | 349 | 11.3 | 19.3 | 0.00 | 0.00 | 0.00 | 48 | 1017.5 |
| 20260502183604 | 7 | 306 | 8.0 | 16.1 | 0.00 | 0.00 | 0.00 | 47 | 1017.5 |
| 20260502183104 | 7 | 329 | 8.0 | 22.5 | 0.00 | 0.00 | 0.00 | 46 | 1017.4 |
| 20260502182104 | 7 | 329 | 12.9 | 20.9 | 0.00 | 0.00 | 0.00 | 48 | 1017.5 |
| 20260502181604 | 7 | 299 | 6.4 | 20.9 | 0.00 | 0.00 | 0.00 | 48 | 1017.5 |
| 20260502181104 | 7 | 308 | 16.1 | 24.1 | 0.00 | 0.00 | 0.00 | 48 | 1017.6 |
| 20260502170105 | 7 | 311 | 11.3 | 19.3 | 0.00 | 0.00 | 0.00 | 49 | 1018.2 |
| 20260502164104 | 6 | 314 | 6.4 | 14.5 | 0.00 | 0.00 | 0.00 | 53 | 1018.4 |
| 20260502163605 | 6 | 303 | 3.2 | 11.3 | 0.00 | 0.00 | 0.00 | 51 | 1018.5 |
| 20260502163104 | 6 | 334 | 9.7 | 20.9 | 0.00 | 0.00 | 0.00 | 51 | 1018.5 |
| 20260502162104 | 6 | 345 | 9.7 | 19.3 | 0.00 | 0.00 | 0.00 | 52 | 1018.6 |
| 20260502161604 | 6 | 304 | 11.3 | 19.3 | 0.00 | 0.00 | 0.00 | 51 | 1018.5 |
| 20260502161104 | 6 | 19 | 11.3 | 19.3 | 0.00 | 0.00 | 0.00 | 51 | 1018.6 |
| 20260502160604 | 6 | 330 | 4.8 | 14.5 | 0.00 | 0.00 | 0.00 | 52 | 1018.5 |
| 20260502160106 | 6 | 13 | 4.8 | 12.9 | 0.00 | 0.00 | 0.00 | 54 | 1018.6 |
| 20260502152103 | 6 | 320 | 8.0 | 16.1 | 0.00 | 0.00 | 0.00 | 58 | 1018.2 |
| 20260502151604 | 6 | 322 | 8.0 | 11.3 | 0.00 | 0.00 | 0.00 | 59 | 1018.1 |
| 20260502151105 | 5 | 288 | 9.7 | 16.1 | 0.00 | 0.00 | 0.00 | 58 | 1018.2 |
| 20260502150604 | 5 | 351 | 8.0 | 14.5 | 0.00 | 0.00 | 0.00 | 59 | 1018.1 |
| 20260502140105 | 5 | 8 | 4.8 | 19.3 | 0.00 | 0.00 | 0.00 | 65 | 1017.9 |
| 20260502130604 | 4 | 347 | 8.0 | 16.1 | 0.00 | 0.00 | 0.00 | 70 | 1018.1 |
| 20260502130105 | 4 | 356 | 9.7 | 19.3 | 0.00 | 0.00 | 0.00 | 70 | 1018.2 |
| 20260502123603 | 3 | 340 | 8.0 | 14.5 | 0.00 | 0.00 | 0.00 | 73 | 1018.1 |
| 20260502123104 | 3 | 340 | 9.7 | 16.1 | 0.00 | 0.00 | 0.00 | 73 | 1018.1 |
| 20260502122604 | 3 | 357 | 9.7 | 14.5 | 0.00 | 0.00 | 0.00 | 73 | 1018.1 |
| 20260502122104 | 3 | 23 | 3.2 | 12.9 | 0.00 | 0.00 | 0.00 | 74 | 1018.1 |
| 20260502121603 | 3 | 2 | 6.4 | 14.5 | 0.00 | 0.00 | 0.00 | 74 | 1018.0 |
| 20260502121103 | 3 | 8 | 6.4 | 14.5 | 0.00 | 0.00 | 0.00 | 75 | 1018.1 |
| 20260502120105 | 2 | 354 | 8.0 | 12.9 | 0.00 | 0.00 | 0.00 | 78 | 1017.9 |
| 20260502115604 | 2 | 343 | 6.4 | 14.5 | 0.00 | 0.00 | 0.00 | 78 | 1017.9 |
| 20260502115104 | 2 | 331 | 3.2 | 4.8 | 0.00 | 0.00 | 0.00 | 79 | 1017.9 |
| 20260502114604 | 2 | 346 | 3.2 | 4.8 | 0.00 | 0.00 | 0.00 | 79 | 1017.8 |
| 20260502114104 | 2 | 343 | 4.8 | 8.0 | 0.00 | 0.00 | 0.00 | 80 | 1017.8 |
| 20260502113604 | 1 | 333 | 3.2 | 4.8 | 0.00 | 0.00 | 0.00 | 80 | 1017.7 |
| 20260502113103 | 1 | 355 | 3.2 | 4.8 | 0.00 | 0.00 | 0.00 | 80 | 1017.7 |
| 20260502112604 | 1 | 322 | 1.6 | 4.8 | 0.00 | 0.00 | 0.00 | 80 | 1017.7 |
| 20260502112104 | 1 | 322 | 3.2 | 4.8 | 0.00 | 0.00 | 0.00 | 80 | 1017.7 |
| 20260502111103 | 1 | 322 | 3.2 | 4.8 | 0.00 | 0.00 | 0.00 | 80 | 1017.6 |
| 20260502110604 | 1 | 324 | 3.2 | 4.8 | 0.00 | 0.00 | 0.00 | 80 | 1017.5 |
| 20260502105604 | 1 | 331 | 1.6 | 4.8 | 0.00 | 0.00 | 0.00 | 80 | 1017.5 |
| 20260502105105 | 1 | 323 | 1.6 | 4.8 | 0.00 | 0.00 | 0.00 | 80 | 1017.4 |
| 20260502104604 | 1 | 319 | 3.2 | 4.8 | 0.00 | 0.00 | 0.00 | 79 | 1017.3 |
| 20260502104104 | 1 | 318 | 3.2 | 4.8 | 0.00 | 0.00 | 0.00 | 80 | 1017.3 |
| 20260502103604 | 1 | 313 | 4.8 | 4.8 | 0.00 | 0.00 | 0.00 | 80 | 1017.3 |
| 20260502103104 | 1 | 319 | 3.2 | 4.8 | 0.00 | 0.03 | 0.00 | 79 | 1017.2 |
| 20260502102603 | 1 | 318 | 3.2 | 4.8 | 0.00 | 0.03 | 0.00 | 79 | 1017.3 |
| 20260502102104 | 1 | 287 | 3.2 | 11.3 | 0.00 | 0.03 | 0.00 | 79 | 1017.3 |
| 20260502101104 | 1 | 331 | 4.8 | 9.7 | 0.00 | 0.03 | 0.00 | 79 | 1017.3 |
| 20260502100604 | 1 | 325 | 3.2 | 4.8 | 0.00 | 0.05 | 0.00 | 78 | 1017.2 |
| 20260502100105 | 1 | 326 | 3.2 | 8.0 | 0.00 | 0.05 | 0.00 | 78 | 1017.2 |
| 20260502090604 | 3 | 324 | 3.2 | 9.7 | 0.00 | 0.08 | 0.00 | 74 | 1017.0 |
| 20260502090105 | 3 | 325 | 4.8 | 11.3 | 0.00 | 0.08 | 0.00 | 74 | 1016.9 |
| 20260502071104 | 5 | 327 | 4.8 | 11.3 | 0.00 | 0.13 | 0.00 | 69 | 1016.5 |
| 20260502070604 | 5 | 346 | 4.8 | 11.3 | 0.00 | 0.13 | 0.00 | 69 | 1016.6 |
| 20260502070105 | 5 | 312 | 6.4 | 16.1 | 0.00 | 0.13 | 0.00 | 69 | 1016.6 |
| 20260502065605 | 5 | 340 | 6.4 | 12.9 | 0.00 | 0.15 | 0.00 | 69 | 1016.6 |
| 20260502065104 | 5 | 349 | 6.4 | 12.9 | 0.00 | 0.15 | 0.00 | 70 | 1016.6 |
| 20260502064604 | 5 | 308 | 4.8 | 11.3 | 0.00 | 0.18 | 0.00 | 70 | 1016.7 |
| 20260502064103 | 5 | 321 | 4.8 | 9.7 | 0.00 | 0.20 | 0.00 | 70 | 1016.6 |
| 20260502063605 | 5 | 327 | 8.0 | 19.3 | 0.00 | 0.20 | 0.00 | 71 | 1016.7 |
| 20260502062604 | 5 | 347 | 8.0 | 16.1 | 0.00 | 0.23 | 0.00 | 73 | 1016.7 |
| 20260502062104 | 5 | 326 | 4.8 | 14.5 | 0.00 | 0.25 | 0.00 | 74 | 1016.7 |
| 20260502061604 | 5 | 321 | 4.8 | 9.7 | 0.00 | 0.28 | 0.00 | 75 | 1016.7 |
| 20260502061104 | 5 | 344 | 3.2 | 8.0 | 0.00 | 0.28 | 0.00 | 75 | 1016.8 |
| 20260502060604 | 5 | 293 | 3.2 | 8.0 | 0.00 | 0.28 | 0.00 | 75 | 1016.8 |
| 20260502060105 | 5 | 318 | 3.2 | 4.8 | 0.00 | 0.28 | 0.00 | 75 | 1016.8 |
| 20260502055604 | 5 | 300 | 1.6 | 4.8 | 0.00 | 0.28 | 0.00 | 74 | 1016.8 |
| 20260502054603 | 5 | 286 | 3.2 | 4.8 | 0.00 | 0.30 | 0.00 | 74 | 1016.8 |
| 20260502054104 | 5 | 290 | 4.8 | 4.8 | 0.00 | 0.30 | 0.00 | 73 | 1016.9 |
| 20260502053104 | 5 | 322 | 3.2 | 8.0 | 0.00 | 0.36 | 0.00 | 73 | 1016.9 |
| 20260502052604 | 5 | 312 | 4.8 | 11.3 | 0.00 | 0.36 | 0.00 | 73 | 1016.9 |
| 20260502052104 | 5 | 325 | 4.8 | 8.0 | 0.00 | 0.36 | 0.00 | 74 | 1016.9 |